Погода в Мурашах

Россия / Кировская область     59°23′44″N   48°57′49″E
темп.,
°C
ветер,
м/с
пор.,
м/с
влажн.,
%
обл.,
%
осадки,
мм/ч
давл.,
гПа
погр.,
м
4 марта, чт
чт400:00−9зюз269785 0.1 996160
03:00−9юз259792 0.3 995141
06:00−9ююз2497100 0.6 992123
09:00−5ю2596100 1.5 990276
12:00−2ю3596100 1.6 987435
15:00−2ю2396100 2.7 986307
18:00−4с5996100 2.3 986482
21:00−7ссз61292100 3.6 990653
5 марта, пт
пт500:00−11сз51193100 0.1 993447
03:00−17сз4996100 0.2 996261
06:00−20зсз399757 0.0 999192
09:00−17зсз359435 0.0 1000257
12:00−12з259133 0.1 1001516
15:00−11зсз358867 0.2 1003858
18:00−14сз2795100 0.1 1004309
21:00−19зсз239886 0.1 100681
6 марта, сб
сб600:00−21зсз2310015 0.0 100859
03:00−22зсз239939 0.0 100942
06:00−22зсз259961 0.0 1010107
09:00−18зсз249675 0.1 1010249
12:00−15зсз2491100 0.1 1010596
15:00−14з3488100 0.2 1009844
18:00−18зсз2396100 0.1 100983
21:00−21з229985 0.1 101020
7 марта, вс
вс700:00−22зюз2210022 0.0 100920
03:00−23юз2210019 0.0 100920
06:00−23ю23990 0.0 100764
09:00−17ю379511 0.0 1006241
12:00−13ююв599389 0.0 1004476
15:00−11ююв5119295 0.1 1001665
18:00−12ююв51293100 0.3 999838
21:00−12ююв51194100 0.7 998709
8 марта, пн
пн800:00−13юв51194100 0.6 995583
03:00−13вюв51094100 1.1 993569
06:00−14в41094100 0.4 992512
09:00−13в4894100 0.9 992511
12:00−11всв4792100 0.4 993630
15:00−11св4793100 0.9 995684
18:00−13ссв4994100 0.3 998501
21:00−15с3994100 0.4 1001419